軌道要素
Epoch 2006 Sept. 22.0 TT = JDT 2454000.5
T 2006 Oct. 7.43146 TT                                  MPC
q   0.9895425            (2000.0)            P               Q
n   0.18774615     Peri.  179.45434     -0.16146858     -0.93700373
a   3.0205685      Node   279.81019     +0.90424771     -0.01474480
e   0.6723986      Incl.   18.32204     +0.39530238     -0.34900803
P   5.25
From 262 observations 2006 Oct. 2-2011 Dec. 17, mean residual 0".63.
 
  |